Time,TemperatureF,DewpointF,PressureIn,WindDirection,WindDirectionDegrees,WindSpeedMPH,WindSpeedGustMPH,Humidity,HourlyPrecipIn,Conditions,Clouds,dailyrainin,SoftwareType,DateUTC
2013-08-06 00:01:00,66.0,63.0,29.94,South,180,7.0,0.0,91,0.03,,,-99.99,,2013-08-06 04:01:00,
2013-08-06 00:11:00,66.0,64.0,29.94,SSW,203,7.0,0.0,92,0.03,,,-99.99,,2013-08-06 04:11:00,
2013-08-06 00:33:00,66.0,64.0,29.94,SSW,210,6.0,0.0,93,0.03,,,-99.99,,2013-08-06 04:33:00,
2013-08-06 00:44:00,66.0,64.0,29.94,South,186,6.0,0.0,93,0.03,,,-99.99,,2013-08-06 04:44:00,
2013-08-06 00:53:00,66.0,64.0,29.94,South,186,6.0,0.0,93,0.03,,,-99.99,,2013-08-06 04:53:00,
2013-08-06 01:02:00,66.0,65.0,29.93,South,177,5.0,0.0,95,0.03,,,-99.99,,2013-08-06 05:02:00,
2013-08-06 01:11:00,66.0,65.0,29.93,South,184,5.0,0.0,95,0.03,,,-99.99,,2013-08-06 05:11:00,
2013-08-06 01:22:00,66.0,65.0,29.93,South,184,5.0,0.0,95,0.03,,,-99.99,,2013-08-06 05:22:00,
2013-08-06 01:32:00,66.0,65.0,29.93,South,184,5.0,0.0,95,0.03,,,-99.99,,2013-08-06 05:32:00,
2013-08-06 01:53:00,65.0,64.0,29.93,South,174,5.0,0.0,96,0.03,,,-99.99,,2013-08-06 05:53:00,
2013-08-06 02:02:00,65.0,64.0,29.92,South,180,5.0,0.0,98,0.03,,,-99.99,,2013-08-06 06:02:00,
2013-08-06 02:11:00,65.0,64.0,29.92,South,181,5.0,0.0,98,0.03,,,-99.99,,2013-08-06 06:11:00,
2013-08-06 02:22:00,64.0,64.0,29.92,South,181,0.0,0.0,99,0.03,,,-99.99,,2013-08-06 06:22:00,
2013-08-06 02:32:00,64.0,64.0,29.91,South,181,0.0,0.0,99,0.03,,,-99.99,,2013-08-06 06:32:00,
2013-08-06 02:52:00,64.0,64.0,29.91,South,181,0.0,0.0,100,0.03,,,-99.99,,2013-08-06 06:52:00,
2013-08-06 03:01:00,64.0,64.0,29.91,South,181,0.0,0.0,100,0.03,,,-99.99,,2013-08-06 07:01:00,
2013-08-06 03:12:00,64.0,64.0,29.91,South,181,0.0,0.0,100,0.03,,,-99.99,,2013-08-06 07:12:00,
2013-08-06 03:22:00,64.0,64.0,29.91,South,181,0.0,0.0,100,0.03,,,-99.99,,2013-08-06 07:22:00,
2013-08-06 03:32:00,64.0,64.0,29.91,South,181,0.0,0.0,100,0.03,,,-99.99,,2013-08-06 07:32:00,
2013-08-06 03:43:00,64.0,64.0,29.91,South,181,0.0,0.0,100,0.03,,,-99.99,,2013-08-06 07:43:00,
2013-08-06 03:53:00,64.0,64.0,29.91,South,181,0.0,0.0,100,0.03,,,-99.99,,2013-08-06 07:53:00,
2013-08-06 04:02:00,64.0,64.0,29.92,South,181,0.0,0.0,100,0.03,,,-99.99,,2013-08-06 08:02:00,
2013-08-06 04:11:00,64.0,64.0,29.91,South,181,0.0,0.0,100,0.03,,,-99.99,,2013-08-06 08:11:00,
2013-08-06 04:22:00,64.0,64.0,29.91,South,187,6.0,0.0,100,0.03,,,-99.99,,2013-08-06 08:22:00,
2013-08-06 04:33:00,64.0,64.0,29.90,SSW,203,7.0,0.0,100,0.03,,,-99.99,,2013-08-06 08:33:00,
2013-08-06 04:43:00,64.0,64.0,29.91,South,188,0.0,0.0,100,0.03,,,-99.99,,2013-08-06 08:43:00,
2013-08-06 04:52:00,64.0,64.0,29.91,South,188,0.0,0.0,100,0.03,,,-99.99,,2013-08-06 08:52:00,
2013-08-06 05:01:00,64.0,64.0,29.90,South,188,0.0,0.0,100,0.03,,,-99.99,,2013-08-06 09:01:00,
2013-08-06 05:11:00,64.0,64.0,29.90,South,188,0.0,0.0,100,0.03,,,-99.99,,2013-08-06 09:11:00,
2013-08-06 05:43:00,64.0,64.0,29.89,South,188,0.0,0.0,100,0.03,,,-99.99,,2013-08-06 09:43:00,
2013-08-06 05:52:00,64.0,64.0,29.89,South,188,0.0,0.0,100,0.03,,,-99.99,,2013-08-06 09:52:00,
2013-08-06 06:01:00,64.0,64.0,29.89,South,188,0.0,0.0,100,0.03,,,-99.99,,2013-08-06 10:01:00,
2013-08-06 06:12:00,64.0,64.0,29.88,South,188,0.0,0.0,100,0.03,,,-99.99,,2013-08-06 10:12:00,
2013-08-06 06:32:00,64.0,64.0,29.88,South,190,2.0,0.0,100,0.03,,,-99.99,,2013-08-06 10:32:00,
2013-08-06 06:43:00,64.0,64.0,29.88,South,190,0.0,0.0,100,0.03,,,-99.99,,2013-08-06 10:43:00,
2013-08-06 06:52:00,64.0,64.0,29.88,South,190,0.0,0.0,100,0.03,,,-99.99,,2013-08-06 10:52:00,
2013-08-06 07:11:00,64.0,64.0,29.89,South,190,0.0,0.0,100,0.03,,,-99.99,,2013-08-06 11:11:00,
2013-08-06 07:22:00,64.0,64.0,29.89,South,190,0.0,0.0,100,0.03,,,-99.99,,2013-08-06 11:22:00,
2013-08-06 07:32:00,64.0,64.0,29.90,South,190,0.0,0.0,100,0.03,,,-99.99,,2013-08-06 11:32:00,
2013-08-06 07:43:00,64.0,64.0,29.90,South,190,0.0,0.0,100,0.03,,,-99.99,,2013-08-06 11:43:00,
2013-08-06 07:53:00,64.0,64.0,29.90,South,190,0.0,0.0,100,0.03,,,-99.99,,2013-08-06 11:53:00,
2013-08-06 08:02:00,64.0,64.0,29.90,SSW,205,0.0,0.0,100,0.03,,,-99.99,,2013-08-06 12:02:00,
2013-08-06 08:11:00,64.0,64.0,29.90,SSW,205,0.0,0.0,100,0.03,,,-99.99,,2013-08-06 12:11:00,
2013-08-06 08:22:00,64.0,64.0,29.90,SSW,205,0.0,0.0,100,0.03,,,-99.99,,2013-08-06 12:22:00,
2013-08-06 08:43:00,64.0,64.0,29.90,SSW,203,8.0,0.0,100,0.03,,,-99.99,,2013-08-06 12:43:00,
2013-08-06 08:52:00,64.0,64.0,29.90,SSW,203,8.0,0.0,100,0.03,,,-99.99,,2013-08-06 12:52:00,
2013-08-06 09:02:00,65.0,65.0,29.90,South,187,8.0,0.0,100,0.03,,,-99.99,,2013-08-06 13:02:00,
2013-08-06 09:11:00,65.0,65.0,29.90,SSW,200,8.0,0.0,100,0.03,,,-99.99,,2013-08-06 13:11:00,
2013-08-06 09:32:00,65.0,65.0,29.90,SSW,195,9.0,0.0,100,0.03,,,-99.99,,2013-08-06 13:32:00,
2013-08-06 10:01:00,66.0,66.0,29.91,SW,229,7.0,0.0,100,0.03,,,-99.99,,2013-08-06 14:01:00,
2013-08-06 10:11:00,66.0,66.0,29.91,South,176,7.0,0.0,100,0.03,,,-99.99,,2013-08-06 14:11:00,
2013-08-06 10:22:00,66.0,66.0,29.91,South,172,9.0,0.0,100,0.03,,,-99.99,,2013-08-06 14:22:00,
2013-08-06 10:53:00,67.0,67.0,29.90,South,188,10.0,0.0,99,0.03,,,-99.99,,2013-08-06 14:53:00,
2013-08-06 11:02:00,67.0,67.0,29.91,South,187,9.0,0.0,99,0.03,,,-99.99,,2013-08-06 15:02:00,
2013-08-06 11:11:00,68.0,67.0,29.91,South,188,7.0,0.0,98,0.03,,,-99.99,,2013-08-06 15:11:00,
2013-08-06 11:33:00,68.0,67.0,29.90,South,188,7.0,0.0,97,0.03,,,-99.99,,2013-08-06 15:33:00,
2013-08-06 11:44:00,68.0,67.0,29.90,South,188,7.0,0.0,97,0.03,,,-99.99,,2013-08-06 15:44:00,
2013-08-06 11:52:00,68.0,67.0,29.90,SSW,195,9.0,0.0,97,0.03,,,-99.99,,2013-08-06 15:52:00,
2013-08-06 12:02:00,69.0,68.0,29.90,SSE,165,7.0,0.0,97,0.03,,,-99.99,,2013-08-06 16:02:00,
2013-08-06 12:11:00,69.0,68.0,29.90,SSE,165,7.0,0.0,97,0.03,,,-99.99,,2013-08-06 16:11:00,
2013-08-06 12:43:00,70.0,69.0,29.91,South,191,9.0,0.0,96,0.03,,,-99.99,,2013-08-06 16:43:00,
2013-08-06 12:52:00,70.0,69.0,29.91,South,191,9.0,0.0,96,0.03,,,-99.99,,2013-08-06 16:52:00,
2013-08-06 13:02:00,70.0,68.0,29.91,South,186,10.0,0.0,94,0.03,,,-99.99,,2013-08-06 17:02:00,
2013-08-06 13:11:00,71.0,69.0,29.91,South,174,8.0,0.0,94,0.03,,,-99.99,,2013-08-06 17:11:00,
2013-08-06 13:32:00,71.0,69.0,29.91,SSW,201,7.0,0.0,94,0.03,,,-99.99,,2013-08-06 17:32:00,
2013-08-06 13:44:00,71.0,69.0,29.91,SSW,201,7.0,0.0,94,0.03,,,-99.99,,2013-08-06 17:44:00,
2013-08-06 13:52:00,71.0,69.0,29.91,SSW,194,8.0,0.0,94,0.03,,,-99.99,,2013-08-06 17:52:00,
2013-08-06 14:11:00,71.0,69.0,29.91,SSE,166,7.0,0.0,94,0.03,,,-99.99,,2013-08-06 18:11:00,
2013-08-06 14:22:00,71.0,69.0,29.91,South,186,8.0,0.0,94,0.03,,,-99.99,,2013-08-06 18:22:00,
2013-08-06 14:32:00,71.0,69.0,29.91,South,186,8.0,0.0,94,0.03,,,-99.99,,2013-08-06 18:32:00,
2013-08-06 14:52:00,72.0,70.0,29.89,South,184,11.0,0.0,93,0.03,,,-99.99,,2013-08-06 18:52:00,
2013-08-06 15:01:00,71.0,69.0,29.90,South,184,9.0,0.0,94,0.03,,,-99.99,,2013-08-06 19:01:00,
2013-08-06 15:11:00,72.0,70.0,29.89,South,172,8.0,0.0,94,0.03,,,-99.99,,2013-08-06 19:11:00,
2013-08-06 15:21:00,72.0,70.0,29.89,South,172,8.0,0.0,94,0.03,,,-99.99,,2013-08-06 19:21:00,
2013-08-06 15:32:00,72.0,70.0,29.89,South,184,7.0,0.0,95,0.03,,,-99.99,,2013-08-06 19:32:00,
2013-08-06 15:42:00,72.0,70.0,29.89,South,184,7.0,0.0,95,0.03,,,-99.99,,2013-08-06 19:42:00,
2013-08-06 15:52:00,72.0,70.0,29.89,South,184,7.0,0.0,95,0.03,,,-99.99,,2013-08-06 19:52:00,
2013-08-06 16:01:00,72.0,70.0,29.90,SSW,203,8.0,0.0,95,0.03,,,-99.99,,2013-08-06 20:01:00,
2013-08-06 16:32:00,71.0,70.0,29.89,South,187,7.0,0.0,97,0.03,,,-99.99,,2013-08-06 20:32:00,
2013-08-06 16:44:00,71.0,70.0,29.89,South,187,7.0,0.0,97,0.03,,,-99.99,,2013-08-06 20:44:00,
2013-08-06 16:52:00,71.0,70.0,29.88,SSW,210,8.0,0.0,98,0.03,,,-99.99,,2013-08-06 20:52:00,
2013-08-06 17:01:00,71.0,70.0,29.89,South,176,9.0,0.0,97,0.03,,,-99.99,,2013-08-06 21:01:00,
2013-08-06 17:11:00,71.0,70.0,29.89,South,176,9.0,0.0,97,0.03,,,-99.99,,2013-08-06 21:11:00,
2013-08-06 17:43:00,71.0,70.0,29.88,SW,229,7.0,0.0,97,0.03,,,-99.99,,2013-08-06 21:43:00,
2013-08-06 17:52:00,72.0,71.0,29.88,South,172,9.0,0.0,96,0.03,,,-99.99,,2013-08-06 21:52:00,
2013-08-06 18:01:00,74.0,72.0,29.87,SW,219,7.0,0.0,94,0.03,,,-99.99,,2013-08-06 22:01:00,
2013-08-06 18:11:00,74.0,72.0,29.87,SW,219,7.0,0.0,94,0.03,,,-99.99,,2013-08-06 22:11:00,
2013-08-06 18:32:00,73.0,71.0,29.87,South,180,9.0,0.0,92,0.03,,,-99.99,,2013-08-06 22:32:00,
2013-08-06 18:43:00,73.0,71.0,29.87,South,183,7.0,0.0,92,0.03,,,-99.99,,2013-08-06 22:43:00,
2013-08-06 18:52:00,73.0,70.0,29.87,South,187,9.0,0.0,91,0.03,,,-99.99,,2013-08-06 22:52:00,
2013-08-06 19:01:00,74.0,71.0,29.87,SSW,193,9.0,0.0,91,0.03,,,-99.99,,2013-08-06 23:01:00,
2013-08-06 19:11:00,74.0,71.0,29.87,SSW,193,9.0,0.0,91,0.03,,,-99.99,,2013-08-06 23:11:00,
2013-08-06 19:33:00,73.0,71.0,29.88,South,184,7.0,0.0,92,0.03,,,-99.99,,2013-08-06 23:33:00,
2013-08-06 19:52:00,73.0,70.0,29.88,South,180,6.0,0.0,91,0.03,,,-99.99,,2013-08-06 23:52:00,
2013-08-06 20:01:00,74.0,71.0,29.88,South,172,7.0,0.0,91,0.03,,,-99.99,,2013-08-07 00:01:00,
2013-08-06 20:11:00,74.0,71.0,29.88,South,181,7.0,0.0,90,0.03,,,-99.99,,2013-08-07 00:11:00,
2013-08-06 20:21:00,74.0,71.0,29.88,South,181,7.0,0.0,90,0.03,,,-99.99,,2013-08-07 00:21:00,
2013-08-06 20:32:00,74.0,71.0,29.88,SSW,193,5.0,0.0,90,0.03,,,-99.99,,2013-08-07 00:32:00,
2013-08-06 20:43:00,73.0,70.0,29.87,SSW,203,6.0,0.0,91,0.03,,,-99.99,,2013-08-07 00:43:00,
2013-08-06 20:52:00,73.0,71.0,29.87,SSW,195,6.0,0.0,92,0.03,,,-99.99,,2013-08-07 00:52:00,
2013-08-06 21:01:00,72.0,70.0,29.87,SSW,195,5.0,0.0,93,0.03,,,-99.99,,2013-08-07 01:01:00,
2013-08-06 21:11:00,72.0,70.0,29.87,SSW,195,5.0,0.0,93,0.03,,,-99.99,,2013-08-07 01:11:00,
2013-08-06 21:32:00,71.0,69.0,29.87,SSW,194,0.0,0.0,95,0.03,,,-99.99,,2013-08-07 01:32:00,
2013-08-06 21:52:00,71.0,69.0,29.88,SSW,194,0.0,0.0,95,0.03,,,-99.99,,2013-08-07 01:52:00,
2013-08-06 22:02:00,69.0,68.0,29.88,SSW,194,0.0,0.0,97,0.03,,,-99.99,,2013-08-07 02:02:00,
2013-08-06 22:11:00,69.0,68.0,29.88,SSW,194,0.0,0.0,98,0.03,,,-99.99,,2013-08-07 02:11:00,
2013-08-06 23:23:00,68.0,68.0,29.88,SSW,194,0.0,0.0,100,0.03,,,-99.99,,2013-08-07 03:23:00,
2013-08-06 23:32:00,68.0,68.0,29.88,SSW,194,0.0,0.0,100,0.03,,,-99.99,,2013-08-07 03:32:00,
2013-08-06 23:43:00,68.0,68.0,29.86,South,184,0.0,0.0,100,0.03,,,-99.99,,2013-08-07 03:43:00,
2013-08-06 23:52:00,68.0,68.0,29.86,South,184,0.0,0.0,100,0.03,,,-99.99,,2013-08-07 03:52:00,